Snowfall_Accumulation
0.0 0.0 0.0 0.0 0.0 0.0 0.0 0.0 0.0 0.0 0.0 0.0 0.0 0.0 0.0 0.0 0.0 0.0 0.0 0.0 0.0 0.0 0.0 0.0 0.0 0.0 0.0 0.0 0.0 0.0 0.0 0.0 0.0 0.0 0.0 0.0 0.0 0.0 0.0 0.0 0.0 0.0 0.0 0.0 0.0
0.0 0.0 0.0 0.0 0.0 0.0 0.0 0.0 0.0 0.0 0.0 0.0 0.0 0.0 0.0 0.0 0.0 0.0 0.0 0.0 0.0 0.0 0.0 0.0 0.0 0.0 0.0 0.0 0.0 0.0 0.0 0.0 0.0 0.0 0.0 0.0 0.0 0.0 0.0 0.0 0.0 0.0 0.0 0.0 0.0
0.0 0.0 0.0 0.0 0.0 0.0 0.0 0.0 0.0 0.0 0.0 0.0 0.0 0.0 0.0 0.0 0.0 0.0 0.0 0.0 0.0 0.0 0.0 0.0 0.0 0.0 0.0 0.0 0.0 0.0 0.0 0.0 0.0 0.0 0.0 0.0 0.0 0.0 0.0 0.0 0.0 0.0 0.0 0.0 0.0
0.0 0.0 0.0 0.0 0.0 0.0 0.0 0.0 0.0 0.0 0.0 0.0 0.0 0.0 0.0 0.0 0.0 0.0 0.0 0.0 0.0 0.0 0.0 0.0 0.0 0.0 0.0 0.0 0.0 0.0 0.0 0.0 0.0 0.0 0.0 0.0 0.0 0.0 0.0 0.0 0.0 0.0 0.0 0.0 0.0
0.0 0.0 0.0 0.0 0.0 0.0 0.0 0.0 0.0 0.0 0.0 0.0 0.0 0.0 0.0 0.0 0.0 0.0 0.0 0.0 0.0 0.0 0.0 0.0 0.0 0.0 0.0 0.0 0.0 0.0 0.0 0.0 0.0 0.0 0.0 0.0 0.0 0.0 0.0 0.0 0.0 0.0 0.0 0.0 0.0
0.0 0.0 0.0 0.0 0.0 0.0 0.0 0.0 0.0 0.0 0.0 0.0 0.0 0.0 0.0 0.1 0.0 0.0 0.0 0.0 0.0 0.0 0.0 0.0 0.0 0.0 0.0 0.0 0.0 0.0 0.0 0.0 0.0 0.0 0.0 0.0 0.0 0.0 0.0 0.0 0.0 0.0 0.0 0.0 0.0
0.0 0.0 0.0 0.0 0.0 0.0 0.0 0.0 0.0 0.0 0.0 0.0 0.0 0.0 0.0 0.0 0.0 0.0 0.0 0.0 0.0 0.0 0.0 0.0 0.0 0.0 0.0 0.0 0.0 0.0 0.0 0.0 0.0 0.0 0.0 0.0 0.0 0.0 0.0 0.0 0.0 0.0 0.0 0.0 0.0
0.0 0.0 0.0 0.0 0.0 0.0 0.0 0.0 0.0 0.0 0.0 0.0 0.0 0.0 0.0 0.0 0.0 0.0 0.0 0.0 0.0 0.0 0.0 0.0 0.0 0.0 0.0 0.0 0.0 0.0 0.0 0.8 0.0 0.0 0.0 0.0 0.0 0.0 0.0 0.0 0.0 0.0 0.0 0.0 0.0
0.0 0.0 0.0 0.0 0.0 0.0 0.0 0.0 0.0 0.0 0.0 0.0 0.0 0.0 0.0 0.0 0.0 0.0 0.0 0.0 0.0 0.0 0.0 0.0 0.0 0.0 0.0 1.4 0.4 0.3 2.3 0.2 0.0 0.0 0.0 0.0 0.0 0.0 0.0 0.0 0.0 0.0 0.0 0.0 0.0
0.0 0.0 0.0 0.0 0.0 0.0 0.0 0.0 0.0 0.0 0.0 0.0 0.0 0.0 0.0 0.0 0.0 0.0 0.0 0.0 0.0 0.0 0.0 0.0 0.4 1.0 0.3 5.7 11.0 1.7 0.8 0.1 0.0 0.0 0.0 0.0 0.0 0.0 0.0 0.0 0.0 0.0 0.0 0.0 0.0
0.0 0.0 0.0 0.0 0.0 0.0 0.0 0.0 0.0 0.0 0.0 0.0 0.0 0.0 0.0 0.0 0.0 0.0 0.0 0.0 0.0 0.0 2.7 0.5 2.8 4.9 1.7 0.0 1.8 1.8 3.2 1.5 0.0 0.0 0.0 0.0 0.0 0.0 0.0 0.0 0.0 0.0 0.0 0.0 0.0
0.0 0.0 0.0 0.0 0.0 0.0 0.0 0.0 0.0 0.0 0.4 0.0 0.0 0.0 0.0 0.0 0.0 0.0 0.0 0.0 0.0 2.9 0.0 3.6 4.8 0.5 0.0 0.6 3.3 2.2 2.4 1.5 0.0 0.0 0.0 0.0 0.0 0.0 0.0 0.0 0.0 0.0 0.0 0.0 0.0
0.0 0.0 0.0 0.0 0.0 0.0 0.0 0.0 0.0 0.0 2.6 0.0 0.0 0.0 0.0 0.0 0.0 0.0 0.0 0.0 0.0 1.1 5.1 3.9 0.1 0.3 0.6 1.1 6.8 3.8 3.4 2.2 4.0 0.4 0.1 0.4 0.6 0.0 0.0 0.0 0.0 0.0 0.0 0.0 0.0
0.0 0.0 0.0 0.0 0.0 0.0 0.0 0.0 0.0 0.0 11.0 0.5 0.4 0.0 0.0 0.0 0.3 0.0 0.0 0.0 0.0 0.9 1.9 2.1 0.0 0.1 0.8 1.5 2.0 12.2 0.3 0.5 3.0 5.8 6.6 0.2 6.0 0.0 0.0 0.0 0.0 0.0 0.0 0.0 0.0
0.0 0.0 0.0 0.0 0.0 0.0 0.0 0.0 0.0 0.0 39.4 2.8 0.9 0.0 0.0 1.1 0.5 0.0 0.0 0.0 0.0 0.2 2.3 3.9 0.1 0.2 1.2 0.2 0.3 4.9 1.0 1.9 5.5 8.0 9.5 1.2 8.7 0.0 0.0 0.0 0.4 0.3 0.1 0.0 0.0
0.0 0.0 0.0 0.0 0.0 0.0 0.0 0.0 0.0 20.0 25.1 9.7 1.0 2.6 3.9 1.5 0.1 0.0 0.0 0.0 0.0 0.0 0.0 0.0 0.0 0.0 1.0 0.0 0.0 0.2 3.3 2.1 4.9 8.5 26.9 1.3 4.0 3.1 1.2 2.2 2.0 1.1 0.7 0.2 0.0
0.0 0.0 0.0 0.0 0.0 0.0 0.0 0.0 26.1 20.5 2.2 10.4 7.4 2.0 5.3 3.4 1.1 0.4 4.0 4.9 4.8 11.3 9.2 3.5 2.3 0.0 0.3 2.3 0.5 3.8 20.9 47.5 44.8 40.4 13.7 1.9 5.6 7.0 4.8 3.3 2.1 1.4 1.1 0.6 0.1
0.0 0.0 0.0 0.0 0.0 0.0 0.0 6.4 20.4 1.7 7.0 3.2 4.7 4.1 6.7 0.7 1.8 2.9 3.8 4.3 2.3 5.7 6.0 11.0 15.2 7.1 1.7 3.8 7.1 11.3 20.8 34.6 27.1 14.9 9.0 3.6 15.6 13.7 4.4 3.1 2.6 2.1 1.7 1.1 0.5
0.0 0.0 0.0 0.0 0.0 0.0 0.0 20.9 5.6 6.9 3.8 8.3 6.2 15.3 7.5 1.4 2.4 11.1 6.0 6.2 6.1 4.8 10.9 6.1 8.2 1.3 0.7 0.9 6.9 9.9 22.4 5.2 19.2 5.4 9.9 9.5 10.3 8.0 3.2 3.3 2.6 2.7 2.3 2.1 1.2
0.0 0.0 0.0 0.0 0.0 0.0 2.5 6.9 2.2 1.5 3.2 6.2 8.8 2.8 11.1 6.7 9.4 8.1 10.2 5.1 3.7 2.2 1.9 8.4 8.4 1.6 0.3 0.3 1.3 6.3 3.8 19.3 29.0 30.6 20.9 8.8 10.3 22.9 12.5 9.6 3.8 3.0 3.2 2.9 2.0
0.0 0.0 0.0 0.0 0.0 0.0 14.2 3.3 1.0 0.5 1.7 3.3 2.5 1.9 0.6 4.6 3.9 6.8 11.2 10.0 2.3 1.3 1.6 4.0 7.8 3.6 1.1 8.3 10.5 8.8 18.1 15.0 13.7 13.5 26.0 18.7 27.7 18.9 19.3 12.2 8.7 5.1 3.8 3.6 3.0
0.0 4.2 0.0 0.0 0.6 4.1 7.9 2.3 1.0 0.0 0.0 0.5 0.2 0.8 0.8 0.5 4.2 6.4 10.5 8.7 0.8 0.9 3.6 4.3 7.0 8.3 3.7 3.7 6.3 8.4 10.6 10.2 29.6 17.4 17.4 20.4 32.4 13.1 14.3 7.8 5.1 5.2 4.0 3.3 3.1
0.0 1.6 0.0 0.0 11.3 3.6 0.0 0.1 0.0 1.2 0.7 0.0 1.2 1.0 0.1 0.7 2.5 1.5 1.7 1.2 0.1 0.8 2.6 3.4 8.0 9.2 6.5 6.1 6.4 10.5 9.3 7.6 6.1 14.9 23.0 30.5 39.7 6.0 4.7 6.0 3.6 4.4 4.4 3.5 2.7
0.0 10.2 0.0 0.0 0.0 0.2 0.4 1.3 1.0 0.0 0.2 0.3 0.6 0.3 0.2 0.5 0.7 0.6 0.6 1.0 0.0 0.0 0.7 1.0 5.2 10.4 11.0 11.1 9.9 11.8 8.8 7.1 11.9 25.9 21.0 28.8 20.8 12.4 9.4 14.2 5.4 5.0 3.5 4.0 3.3
0.0 3.0 0.0 4.9 0.9 0.3 1.6 1.6 2.2 2.5 0.2 0.0 0.5 1.6 2.7 2.1 0.4 0.4 0.4 1.1 1.3 1.1 1.0 1.6 4.5 0.6 0.8 0.3 3.5 7.7 10.6 10.4 18.6 16.4 23.3 23.3 17.2 14.5 16.3 17.8 10.9 6.7 3.8 2.8 2.7
1.1 1.6 0.0 0.0 0.0 0.0 0.0 1.6 2.3 1.2 1.1 0.5 1.6 0.4 1.6 4.7 4.0 2.7 1.3 0.9 1.6 1.3 3.4 2.4 6.2 0.9 2.7 0.2 2.4 6.0 3.6 7.4 10.2 12.9 15.1 14.8 18.8 13.7 9.9 6.9 5.9 5.8 4.6 4.0 3.8
0.1 0.0 2.4 0.1 0.0 0.0 0.6 0.7 0.2 0.6 0.0 0.6 1.4 1.3 0.4 0.5 0.8 0.7 0.6 0.3 0.9 2.5 1.4 2.2 3.9 4.4 8.9 0.2 3.0 6.2 6.1 3.3 10.0 12.8 13.7 16.2 18.4 13.8 14.8 10.4 10.2 9.2 7.5 7.9 7.0